Content
SEND FEEDBACK

Daily
Averages
Monthly
Summary
United States of America

STANLEY, NORTH DAKOTA


Home > North America > United States > North Dakota
Elevation: 2295 feet     Latitude: 48 21N     Longitude: 102 25W

WEATHER
 
SELECT A DAY
Number of Records: 90,627;   Date Range: 12/7/10 - 12/17/14
 
SHARE

PRINT THIS DATA

[ ← Previous Day ]
WEATHER ALMANAC - SEPTEMBER 2, 2014
[ Next Day → ]
[ °C ]   °F
Weather ElementAverageHighLow
Temperature60.6 °F73.4 °F (11:15 am)50 °F (12:15 am)
Dewpoint48.9 °F53.6 °F (8:35 am)41 °F (4:35 pm)
Humidity70.6 %100 % (12:15 am)31 % (4:35 pm)
Barometer29.77 in29.83 in (3:35 pm)29.74 in (3:55 pm)
Wind Speed8.1 mph23 mph (12:55 pm)
Wind Gust28.8 mph (7:35 pm)
Weather ElementAverage
Visibility9.9 mi
Wind DirectionSSW (191.7 °)

Weather ElementTotal
Precipitation0.01 in
Heating Degree Days3.3 (Base 65)
Growing Degree Days11.7 (Base 50)
Averaged from 71 records on September 2, 2014
WEATHER CONDITIONS BREAKOUT
WIND DIRECTION BREAKOUT
WEATHER BY HOUR - SEPTEMBER 2, 2014
[ °C ]   °F
Local TimeTemperatureDewpointHumidityBarometerVisibilityWind DirectionWind SpeedGust SpeedPrecipitationEventsConditions
12:15 AM50.0 °F48.2 °F94 %29.83 in10.0 miWSW (250°)5.8 mphClear
12:35 AM50.0 °F48.2 °F94 %29.83 in10.0 miSW (230°)3.5 mphClear
12:55 AM50.0 °F48.2 °F94 %29.83 in10.0 miSW (220°)3.5 mphClear
1:15 AM50.0 °F48.2 °F94 %29.82 in10.0 miSW (230°)3.5 mphClear
1:35 AM50.0 °F50.0 °F100 %29.82 in10.0 miCalmMostly Cloudy
1:55 AM50.0 °F50.0 °F100 %29.81 in10.0 miCalmOvercast
2:15 AM50.0 °F50.0 °F100 %29.81 in10.0 miSouth (190°)4.6 mphScattered Clouds
2:35 AM50.0 °F50.0 °F100 %29.80 in10.0 miSSW (200°)5.8 mphScattered Clouds
2:55 AM50.0 °F50.0 °F100 %29.79 in10.0 miSSW (200°)4.6 mphMostly Cloudy
3:15 AM51.8 °F50.0 °F94 %29.79 in10.0 miSSW (200°)5.8 mphScattered Clouds
3:35 AM51.8 °F50.0 °F94 %29.81 in10.0 miWest (260°)8.1 mphMostly Cloudy
3:55 AM55.4 °F53.6 °F94 %29.80 in8.0 miCalm0.01 inOvercast
4:15 AM55.4 °F51.8 °F88 %29.79 in10.0 miSouth (190°)6.9 mphOvercast
4:35 AM53.6 °F53.6 °F100 %29.79 in10.0 miSW (220°)4.6 mphMostly Cloudy
4:55 AM53.6 °F53.6 °F100 %29.79 in10.0 miSSE (160°)3.5 mphMostly Cloudy
5:15 AM53.6 °F51.8 °F94 %29.78 in10.0 miSouth (170°)4.6 mphOvercast
5:35 AM53.6 °F51.8 °F94 %29.77 in10.0 miCalmOvercast
5:55 AM53.6 °F51.8 °F94 %29.77 in10.0 miSouth (190°)3.5 mphOvercast
6:15 AM55.4 °F51.8 °F88 %29.77 in10.0 miCalmOvercast
6:35 AM53.6 °F51.8 °F94 %29.76 in10.0 miSSW (210°)6.9 mphMostly Cloudy
6:55 AM55.4 °F50.0 °F82 %29.76 in10.0 miSouth (190°)8.1 mphScattered Clouds
7:15 AM53.6 °F50.0 °F88 %29.76 in10.0 miSSW (210°)5.8 mphPartly Cloudy
7:35 AM51.8 °F50.0 °F94 %29.76 in10.0 miCalmClear
7:55 AM53.6 °F50.0 °F88 %29.76 in10.0 miSW (220°)5.8 mphClear
8:15 AM55.4 °F50.0 °F82 %29.75 in10.0 miSW (230°)8.1 mphClear
8:35 AM57.2 °F50.0 °F77 %29.76 in10.0 miWSW (250°)10.4 mphClear
8:55 AM57.2 °F51.8 °F82 %29.76 in10.0 miWSW (250°)12.7 mphClear
9:15 AM59.0 °F50.0 °F72 %29.75 in10.0 miWSW (250°)15.0 mph21.9 mphPartly Cloudy
9:35 AM59.0 °F50.0 °F72 %29.76 in10.0 miWSW (250°)16.1 mph21.9 mphPartly Cloudy
9:55 AM60.8 °F50.0 °F68 %29.76 in10.0 miWSW (250°)16.1 mphClear
10:15 AM62.6 °F50.0 °F63 %29.75 in10.0 miWest (260°)15.0 mph21.9 mphClear
10:35 AM64.4 °F50.0 °F59 %29.75 in10.0 miWest (260°)17.3 mph23.0 mphClear
10:55 AM64.4 °F50.0 °F59 %29.75 in10.0 miWest (260°)17.3 mph23.0 mphClear
11:15 AM66.2 °F50.0 °F56 %29.76 in10.0 miWest (270°)18.4 mph23.0 mphClear
11:35 AM66.2 °F48.2 °F52 %29.76 in10.0 miWSW (250°)17.3 mph25.3 mphClear
11:55 AM68.0 °F46.4 °F46 %29.75 in10.0 miWest (260°)19.6 mph26.5 mphClear
12:15 PM68.0 °F48.2 °F49 %29.75 in10.0 miWest (270°)19.6 mph25.3 mphClear
12:35 PM68.0 °F46.4 °F46 %29.75 in10.0 miWest (280°)12.7 mph23.0 mphClear
12:55 PM69.8 °F48.2 °F46 %29.75 in10.0 miWest (260°)23.0 mph28.8 mphClear
1:15 PM69.8 °F46.4 °F43 %29.76 in10.0 miWest (270°)15.0 mph25.3 mphClear
1:35 PM69.8 °F46.4 °F43 %29.75 in10.0 miWest (280°)15.0 mph27.6 mphClear
1:55 PM71.6 °F46.4 °F41 %29.76 in10.0 miWest (280°)15.0 mph25.3 mphClear
2:15 PM71.6 °F46.4 °F41 %29.76 in10.0 miWNW (300°)13.8 mph20.7 mphClear
2:35 PM71.6 °F46.4 °F41 %29.76 in10.0 miWest (270°)12.7 mph18.4 mphClear
2:55 PM71.6 °F44.6 °F38 %29.76 in10.0 miWNW (300°)12.7 mph20.7 mphClear
3:15 PM71.6 °F46.4 °F41 %29.76 in10.0 miWNW (290°)11.5 mph19.6 mphClear
3:35 PM73.4 °F44.6 °F36 %29.76 in10.0 miWest (270°)12.7 mph20.7 mphClear
3:55 PM73.4 °F46.4 °F38 %29.75 in10.0 miWNW (290°)16.1 mph19.6 mphClear
4:15 PM73.4 °F44.6 °F36 %29.76 in10.0 miWNW (300°)11.5 mph20.7 mphClear
4:35 PM73.4 °F41.0 °F31 %29.76 in10.0 miWNW (290°)11.5 mph21.9 mphClear
4:55 PM73.4 °F44.6 °F36 %29.76 in10.0 miWNW (290°)13.8 mph17.3 mphClear
5:15 PM73.4 °F42.8 °F33 %29.75 in10.0 miNNW (330°)12.7 mph18.4 mphPartly Cloudy
5:55 PM73.4 °F44.6 °F36 %29.75 in10.0 miWNW (300°)9.2 mphClear
6:15 PM71.6 °F42.8 °F35 %29.75 in10.0 miNNW (330°)6.9 mphClear
6:35 PM71.6 °F42.8 °F35 %29.74 in10.0 miNW (320°)8.1 mphClear
6:55 PM71.6 °F44.6 °F38 %29.75 in10.0 miNNW (340°)6.9 mphClear
7:15 PM69.8 °F44.6 °F40 %29.75 in10.0 miNNW (340°)6.9 mphClear
7:35 PM66.2 °F46.4 °F49 %29.75 in10.0 miNorth (350°)5.8 mphClear
7:55 PM64.4 °F48.2 °F56 %29.75 in10.0 miNNE (20°)4.6 mphClear
8:15 PM64.4 °F50.0 °F59 %29.75 in10.0 miNNE (20°)4.6 mphClear
8:35 PM62.6 °F50.0 °F63 %29.76 in10.0 miNNE (20°)3.5 mphClear
8:55 PM57.2 °F51.8 °F82 %29.76 in10.0 miNNE (30°)4.6 mphClear
9:15 PM57.2 °F50.0 °F77 %29.76 in10.0 miENE (60°)3.5 mphClear
9:35 PM57.2 °F50.0 °F77 %29.77 in10.0 miCalmClear
9:55 PM55.4 °F51.8 °F88 %29.77 in10.0 miCalmClear
10:15 PM55.4 °F53.6 °F94 %29.77 in10.0 miCalmClear
10:35 PM55.4 °F53.6 °F94 %29.77 in10.0 miCalmClear
10:55 PM53.6 °F53.6 °F100 %29.77 in10.0 miSE (130°)3.5 mphClear
11:15 PM53.6 °F53.6 °F100 %29.77 in10.0 miCalmClear
11:35 PM51.8 °F51.8 °F100 %29.77 in10.0 miCalmClear
11:55 PM50.0 °F50.0 °F100 %29.76 in4.0 miCalmClear
Hourly data recorded from K08D, located miles away from Stanley, North Dakota







STORIES FROM OUR PARTNERS